| time (UTC) | temp F | wind direction | speed MPH | gust MPH | rain 1hr in | rain 24hr in | rain mn in | humidity % | barometer mb |
| 20260902082017 | 66 | 0.0 | 0.0 | 0.00 | 0.00 | 0.00 | 63 | 1024.5 | |
| 20260902081117 | 65 | 0.0 | 0.0 | 0.00 | 0.00 | 0.00 | 60 | 1024.3 | |
| 20260902080017 | 64 | 0.0 | 0.0 | 0.00 | 0.00 | 0.00 | 57 | 1024.3 | |
| 20260902075037 | 63 | 0.0 | 0.0 | 0.00 | 0.00 | 0.00 | 50 | 1024.1 | |
| 20260902074017 | 62 | 0.0 | 1.0 | 0.00 | 0.00 | 0.00 | 50 | 1024.0 | |
| 20260902073039 | 61 | 135 | 1.0 | 2.0 | 0.00 | 0.00 | 0.00 | 49 | 1023.8 |
| 20260902072018 | 0 | 0.0 | 0.0 | 0.00 | 0.00 | 0.00 | |||
| 20260902071017 | 0 | 0.0 | 0.0 | 0.00 | 0.00 | 0.00 | |||
| 20260902070503 | 0 | 0.0 | 0.0 | 0.00 | 0.00 | 0.00 | |||
| 20260902065517 | 0 | 0.0 | 0.0 | 0.00 | 0.00 | 0.00 | |||
| 20260902064518 | 0 | 0.0 | 0.0 | 0.00 | 0.00 | 0.00 | |||
| 20260902064003 | 0 | 0.0 | 0.0 | 0.00 | 0.00 | 0.00 | |||
| 20260902063017 | 0 | 0.0 | 0.0 | 0.00 | 0.00 | 0.00 | |||
| 20260902062017 | 0 | 0.0 | 0.0 | 0.00 | 0.00 | 0.00 | |||
| 20260902061503 | 0 | 0.0 | 0.0 | 0.00 | 0.00 | 0.00 | |||
| 20260902060517 | 0 | 0.0 | 0.0 | 0.00 | 0.00 | 0.00 | |||
| 20260902055517 | 0 | 0.0 | 0.0 | 0.00 | 0.00 | 0.00 | |||
| 20260902055003 | 0 | 0.0 | 0.0 | 0.00 | 0.00 | 0.00 | |||
| 20260902054017 | 0 | 0.0 | 0.0 | 0.00 | 0.00 | 0.00 | |||
| 20260902053017 | 0 | 0.0 | 0.0 | 0.00 | 0.00 | 0.00 | |||
| 20260902052502 | 0 | 0.0 | 0.0 | 0.00 | 0.00 | 0.00 | |||
| 20260902051517 | 0 | 0.0 | 0.0 | 0.00 | 0.00 | 0.00 | |||
| 20260902050517 | 0 | 0.0 | 0.0 | 0.00 | 0.00 | 0.00 | |||
| 20260902050003 | 0 | 0.0 | 0.0 | 0.00 | 0.00 | 0.00 | |||
| 20260902045037 | 0 | 0.0 | 0.0 | 0.00 | 0.00 | 0.00 | |||
| 20260902044017 | 0 | 0.0 | 0.0 | 0.00 | 0.00 | 0.00 | |||
| 20260902043522 | 0 | 0.0 | 0.0 | 0.00 | 0.00 | 0.00 | |||
| 20260902042517 | 0 | 0.0 | 0.0 | 0.00 | 0.00 | 0.00 | |||
| 20260902041514 | 0 | 0.0 | 0.0 | 0.00 | 0.00 | 0.00 | |||
| 20260902041032 | 59 | 0.0 | 0.0 | 0.00 | 0.00 | 0.00 | 50 | 1023.0 | |
| 20260902040017 | 60 | 0.0 | 2.0 | 0.00 | 0.00 | 0.00 | 49 | 1023.0 | |
| 20260902035017 | 60 | 135 | 1.0 | 2.0 | 0.00 | 0.00 | 0.00 | 51 | 1023.1 |
| 20260902034017 | 60 | 0.0 | 1.0 | 0.00 | 0.00 | 0.00 | 50 | 1023.1 | |
| 20260902033017 | 60 | 135 | 1.0 | 1.0 | 0.00 | 0.00 | 0.00 | 50 | 1023.2 |
| 20260902032017 | 60 | 0.0 | 1.0 | 0.00 | 0.00 | 0.00 | 51 | 1023.1 | |
| 20260902031017 | 60 | 0.0 | 2.0 | 0.00 | 0.00 | 0.00 | 52 | 1023.1 | |
| 20260902030017 | 60 | 0.0 | 1.0 | 0.00 | 0.00 | 0.00 | 53 | 1023.2 | |
| 20260902025017 | 60 | 135 | 1.0 | 2.0 | 0.00 | 0.00 | 0.00 | 54 | 1023.2 |
| 20260902024017 | 60 | 135 | 1.0 | 3.0 | 0.00 | 0.00 | 0.00 | 56 | 1023.2 |
| 20260902023017 | 60 | 135 | 1.0 | 3.0 | 0.00 | 0.00 | 0.00 | 55 | 1023.3 |
| 20260902022017 | 60 | 0.0 | 1.0 | 0.00 | 0.00 | 0.00 | 58 | 1023.4 | |
| 20260902021016 | 61 | 0.0 | 1.0 | 0.00 | 0.00 | 0.00 | 58 | 1023.5 | |
| 20260902020017 | 61 | 135 | 1.0 | 1.0 | 0.00 | 0.00 | 0.00 | 58 | 1023.4 |
| 20260902015037 | 61 | 135 | 1.0 | 1.0 | 0.00 | 0.00 | 0.00 | 59 | 1023.3 |
| 20260902014017 | 61 | 135 | 1.0 | 2.0 | 0.00 | 0.00 | 0.00 | 59 | 1023.3 |
| 20260902013036 | 61 | 135 | 1.0 | 1.0 | 0.00 | 0.00 | 0.00 | 62 | 1023.4 |
| 20260902012017 | 61 | 0.0 | 1.0 | 0.00 | 0.00 | 0.00 | 64 | 1023.5 | |
| 20260902011016 | 62 | 0.0 | 0.0 | 0.00 | 0.00 | 0.00 | 66 | 1023.4 | |
| 20260902010017 | 62 | 0.0 | 0.0 | 0.00 | 0.00 | 0.00 | 65 | 1023.4 | |
| 20260902005016 | 62 | 0.0 | 0.0 | 0.00 | 0.00 | 0.00 | 65 | 1023.4 | |
| 20260902004017 | 63 | 135 | 1.0 | 2.0 | 0.00 | 0.00 | 0.00 | 62 | 1023.4 |
| 20260902003017 | 63 | 0.0 | 1.0 | 0.00 | 0.00 | 0.00 | 63 | 1023.4 | |
| 20260902002016 | 63 | 135 | 1.0 | 3.0 | 0.00 | 0.00 | 0.00 | 61 | 1023.4 |
| 20260902001017 | 62 | 0.0 | 0.0 | 0.00 | 0.00 | 0.00 | 61 | 1023.4 | |
| 20260902000037 | 63 | 135 | 1.0 | 3.0 | 0.00 | 0.00 | 0.00 | 58 | 1023.4 |
| 20260901235016 | 62 | 135 | 1.0 | 1.0 | 0.00 | 0.00 | 0.00 | 58 | 1023.3 |
| 20260901234016 | 62 | 135 | 1.0 | 2.0 | 0.00 | 0.00 | 0.00 | 60 | 1023.3 |
| 20260901233017 | 62 | 0.0 | 1.0 | 0.00 | 0.00 | 0.00 | 60 | 1023.3 | |
| 20260901232017 | 62 | 135 | 1.0 | 2.0 | 0.00 | 0.00 | 0.00 | 60 | 1023.3 |
| 20260901231016 | 63 | 0.0 | 1.0 | 0.00 | 0.00 | 0.00 | 61 | 1023.2 | |
| 20260901230036 | 63 | 0.0 | 1.0 | 0.00 | 0.00 | 0.00 | 59 | 1023.2 | |
| 20260901225057 | 63 | 0.0 | 0.0 | 0.00 | 0.00 | 0.00 | 61 | 1023.3 | |
| 20260901224037 | 63 | 0.0 | 1.0 | 0.00 | 0.00 | 0.00 | 63 | 1023.2 | |
| 20260901223017 | 63 | 0.0 | 0.0 | 0.00 | 0.00 | 0.00 | 62 | 1023.3 | |
| 20260901222017 | 64 | 0.0 | 0.0 | 0.00 | 0.00 | 0.00 | 64 | 1023.4 | |
| 20260901221058 | 63 | 0.0 | 0.0 | 0.00 | 0.00 | 0.00 | 66 | 1023.4 | |
| 20260901220017 | 64 | 0.0 | 0.0 | 0.00 | 0.00 | 0.00 | 67 | 1023.5 | |
| 20260901215016 | 64 | 0.0 | 0.0 | 0.00 | 0.00 | 0.00 | 67 | 1023.6 | |
| 20260901214016 | 64 | 0.0 | 1.0 | 0.00 | 0.00 | 0.00 | 68 | 1023.7 | |
| 20260901213016 | 64 | 0.0 | 0.0 | 0.00 | 0.00 | 0.00 | 72 | 1023.8 | |
| 20260901212016 | 65 | 0.0 | 0.0 | 0.00 | 0.00 | 0.00 | 72 | 1023.7 | |
| 20260901211016 | 65 | 0.0 | 0.0 | 0.00 | 0.00 | 0.00 | 73 | 1023.6 | |
| 20260901210016 | 65 | 0.0 | 0.0 | 0.00 | 0.00 | 0.00 | 74 | 1023.5 | |
| 20260901205016 | 65 | 0.0 | 0.0 | 0.00 | 0.00 | 0.00 | 75 | 1023.6 | |
| 20260901204015 | 66 | 0.0 | 0.0 | 0.00 | 0.00 | 0.00 | 77 | 1023.5 | |
| 20260901203015 | 66 | 0.0 | 2.0 | 0.00 | 0.00 | 0.00 | 78 | 1023.4 | |
| 20260901202036 | 67 | 0.0 | 0.0 | 0.00 | 0.00 | 0.00 | 79 | ||
| 20260901201016 | 67 | 0.0 | 1.0 | 0.00 | 0.00 | 0.00 | 79 | ||
| 20260901200016 | 67 | 0.0 | 1.0 | 0.00 | 0.00 | 0.00 | 79 | ||
| 20260901195016 | 67 | 0.0 | 1.0 | 0.00 | 0.00 | 0.00 | 80 | ||
| 20260901194016 | 68 | 0.0 | 0.0 | 0.00 | 0.00 | 0.00 | 80 | ||
| 20260901193016 | 68 | 0.0 | 1.0 | 0.00 | 0.00 | 0.00 | 81 | ||
| 20260901192015 | 68 | 0.0 | 1.0 | 0.00 | 0.00 | 0.00 | 81 | ||
| 20260901191015 | 68 | 0.0 | 1.0 | 0.00 | 0.00 | 0.00 | 82 | ||
| 20260901190015 | 69 | 0.0 | 1.0 | 0.00 | 0.00 | 0.00 | 82 | ||
| 20260901185016 | 69 | 0.0 | 3.0 | 0.00 | 0.00 | 0.00 | 82 | ||
| 20260901184015 | 70 | 0.0 | 1.0 | 0.00 | 0.00 | 0.00 | 82 | ||
| 20260901183015 | 70 | 0.0 | 0.0 | 0.00 | 0.00 | 0.00 | 82 | ||
| 20260901182016 | 71 | 0.0 | 2.0 | 0.00 | 0.00 | 0.00 | 82 | ||
| 20260901181015 | 72 | 135 | 1.0 | 3.0 | 0.00 | 0.00 | 0.00 | 81 | |
| 20260901180018 | 73 | 135 | 1.0 | 3.0 | 0.00 | 0.00 | 0.00 | 80 | |
| 20260901175018 | 73 | 135 | 2.0 | 4.0 | 0.00 | 0.00 | 0.00 | 79 | |
| 20260901174018 | 73 | 135 | 2.0 | 5.0 | 0.00 | 0.00 | 0.00 | 78 | |
| 20260901173037 | 74 | 135 | 2.0 | 5.0 | 0.00 | 0.00 | 0.00 | 78 | |
| 20260901172018 | 73 | 135 | 2.0 | 5.0 | 0.00 | 0.00 | 0.00 | 77 | |
| 20260901171017 | 74 | 135 | 2.0 | 4.0 | 0.00 | 0.00 | 0.00 | 76 | |
| 20260901170018 | 74 | 135 | 2.0 | 4.0 | 0.00 | 0.00 | 0.00 | 75 | |
| 20260901165057 | 75 | 135 | 2.0 | 3.0 | 0.00 | 0.00 | 0.00 | 73 | |
| 20260901164017 | 76 | 135 | 1.0 | 4.0 | 0.00 | 0.00 | 0.00 | 71 | |
| 20260901163038 | 76 | 135 | 1.0 | 3.0 | 0.00 | 0.00 | 0.00 | 71 | |
| 20260901162038 | 76 | 135 | 1.0 | 4.0 | 0.00 | 0.00 | 0.00 | 70 | 1022.2 |
| 20260901161037 | 76 | 135 | 2.0 | 4.0 | 0.00 | 0.00 | 0.00 | 70 | 1022.2 |
| 20260901160015 | 76 | 135 | 1.0 | 4.0 | 0.00 | 0.00 | 0.00 | 70 | 1022.2 |
| 20260901155018 | 77 | 135 | 2.0 | 4.0 | 0.00 | 0.00 | 0.00 | 70 | 1022.4 |
| 20260901154016 | 77 | 135 | 1.0 | 4.0 | 0.00 | 0.00 | 0.00 | 70 | 1022.3 |
| 20260901153018 | 77 | 135 | 1.0 | 6.0 | 0.00 | 0.00 | 0.00 | 70 | 1022.3 |
| 20260901152016 | 77 | 135 | 1.0 | 5.0 | 0.00 | 0.00 | 0.00 | 69 | 1022.3 |
| 20260901151017 | 77 | 135 | 1.0 | 3.0 | 0.00 | 0.00 | 0.00 | 69 | 1022.2 |
| 20260901150017 | 76 | 135 | 2.0 | 4.0 | 0.00 | 0.00 | 0.00 | 69 | 1022.1 |
| 20260901145018 | 76 | 135 | 3.0 | 5.0 | 0.00 | 0.00 | 0.00 | 70 | 1022.2 |
| 20260901144037 | 76 | 135 | 1.0 | 6.0 | 0.00 | 0.00 | 0.00 | 70 | 1022.3 |
| 20260901143038 | 76 | 135 | 3.0 | 5.0 | 0.00 | 0.00 | 0.00 | 72 | 1022.3 |
| 20260901142018 | 77 | 135 | 2.0 | 4.0 | 0.00 | 0.00 | 0.00 | 72 | 1022.3 |
| 20260901141017 | 76 | 135 | 2.0 | 6.0 | 0.00 | 0.00 | 0.00 | 71 | 1022.2 |
| 20260901140018 | 77 | 135 | 2.0 | 5.0 | 0.00 | 0.00 | 0.00 | 71 | 1022.2 |
| 20260901135017 | 77 | 135 | 2.0 | 4.0 | 0.00 | 0.00 | 0.00 | 69 | 1022.3 |
| 20260901134058 | 77 | 135 | 1.0 | 4.0 | 0.00 | 0.00 | 0.00 | 70 | 1022.4 |
| 20260901133018 | 77 | 135 | 2.0 | 4.0 | 0.00 | 0.00 | 0.00 | 68 | 1022.3 |
| 20260901132018 | 77 | 135 | 3.0 | 5.0 | 0.00 | 0.00 | 0.00 | 68 | 1022.2 |
| 20260901131018 | 76 | 135 | 2.0 | 6.0 | 0.00 | 0.00 | 0.00 | 69 | 1022.1 |
| 20260901130017 | 76 | 135 | 1.0 | 4.0 | 0.00 | 0.00 | 0.00 | 71 | 1022.2 |
| 20260901125037 | 76 | 135 | 2.0 | 5.0 | 0.00 | 0.00 | 0.00 | 71 | 1022.4 |
| 20260901124038 | 76 | 135 | 1.0 | 4.0 | 0.00 | 0.00 | 0.00 | 71 | 1022.3 |
| 20260901123018 | 76 | 135 | 2.0 | 4.0 | 0.00 | 0.00 | 0.00 | 72 | 1022.5 |
| 20260901122058 | 75 | 135 | 1.0 | 6.0 | 0.00 | 0.00 | 0.00 | 75 | 1022.4 |
| 20260901121018 | 75 | 135 | 2.0 | 6.0 | 0.00 | 0.00 | 0.00 | 73 | 1022.3 |
| 20260901120017 | 75 | 135 | 1.0 | 5.0 | 0.00 | 0.00 | 0.00 | 74 | 1022.4 |
| 20260901115018 | 74 | 135 | 1.0 | 5.0 | 0.00 | 0.00 | 0.00 | 75 | 1022.4 |
| 20260901114038 | 74 | 135 | 2.0 | 6.0 | 0.00 | 0.00 | 0.00 | 76 | 1022.5 |
| 20260901113018 | 74 | 135 | 2.0 | 5.0 | 0.00 | 0.00 | 0.00 | 77 | 1022.5 |
| 20260901112119 | 74 | 135 | 2.0 | 7.0 | 0.00 | 0.00 | 0.00 | 77 | 1022.7 |
| 20260901111018 | 75 | 0.0 | 2.0 | 0.00 | 0.00 | 0.00 | 76 | 1022.8 | |
| 20260901110038 | 74 | 135 | 2.0 | 4.0 | 0.00 | 0.00 | 0.00 | 77 | 1023.1 |
| 20260901105015 | 73 | 135 | 2.0 | 4.0 | 0.00 | 0.00 | 0.00 | 78 | 1023.3 |
| 20260901104017 | 73 | 135 | 2.0 | 4.0 | 0.00 | 0.00 | 0.00 | 79 | 1023.3 |
| 20260901103058 | 73 | 135 | 2.0 | 4.0 | 0.00 | 0.00 | 0.00 | 80 | 1023.3 |
| 20260901102017 | 72 | 135 | 1.0 | 4.0 | 0.00 | 0.00 | 0.00 | 81 | 1023.3 |
| 20260901101018 | 72 | 135 | 1.0 | 5.0 | 0.00 | 0.00 | 0.00 | 81 | 1023.4 |
| 20260901100017 | 72 | 135 | 1.0 | 4.0 | 0.00 | 0.00 | 0.00 | 81 | 1023.3 |
| 20260901095017 | 72 | 135 | 1.0 | 6.0 | 0.00 | 0.00 | 0.00 | 82 | 1023.3 |
| 20260901094018 | 71 | 0.0 | 2.0 | 0.00 | 0.00 | 0.00 | 82 | 1023.2 | |
| 20260901093037 | 70 | 135 | 1.0 | 3.0 | 0.00 | 0.00 | 0.00 | 82 | 1023.2 |
| 20260901092057 | 70 | 135 | 1.0 | 5.0 | 0.00 | 0.00 | 0.00 | 81 | 1023.2 |
| 20260901091017 | 69 | 135 | 1.0 | 2.0 | 0.00 | 0.00 | 0.00 | 78 | 1023.2 |
| 20260901090017 | 69 | 135 | 1.0 | 3.0 | 0.00 | 0.00 | 0.00 | 72 | 1023.2 |
| 20260901085017 | 68 | 135 | 1.0 | 3.0 | 0.00 | 0.00 | 0.00 | 65 | 1023.1 |
| 20260901084017 | 67 | 0.0 | 0.0 | 0.00 | 0.00 | 0.00 | 61 | 1023.1 | |
| 20260901083018 | 66 | 0.0 | 0.0 | 0.00 | 0.00 | 0.00 | 61 | 1023.1 |